Home > Weather > Dover > Past weeks

Flag for U.S.A. Weather for the Past 2 Weeks in Dover, Delaware, U.S.A.

Now
17 °F

Clear.


Feels Like: 2 °F
Forecast: 9 / 19 °F
Wind: 14 mph from Northwest

Location: Dover Air Force Base

Current Time: Feb 13, 2016 at 9:02:52 PM

Latest Report: Feb 13, 2016 at 7:58 PM


Visibility: 10 mi

Pressure: 30.36 "Hg

Humidity: 42%

Dew point: -3 °F

Location of DoverLocation

Historic Weather in Dover — Graph

°F

Dover Temperature Yesterday

Maximum temperature yesterday: 28 °F (at 2:58 PM)
Minimum temperature yesterday: 17 °F (at 6:58 AM)
Average temperature yesterday: 23 °F

High & Low Weather Summary for the Past Weeks

 TemperatureHumidityPressure
High62 °F (Feb 1, 1:58 PM)100% (Feb 1, 5:58 PM)30.47 "Hg (Feb 1, 5:58 PM)
Low17 °F (Feb 12, 6:58 AM)34% (Feb 13, 12:58 PM)29.52 "Hg (Feb 9, 3:03 PM)
Average37 °F75%30.01 "Hg
* Reported Jan 29 7:58 PM — Feb 13 7:58 PM, Dover, Weather by CustomWeather, © 2016

Note: Actual official high and low records may vary slightly from our data, if they occured in-between our weather recording intervals... More about our weather records

Advertising

Dover Weather History for the Previous 24 Hours

 ConditionsComfort  
Time TempWeatherWind HumidityBarometerVisibility
7:58 PM
Sat, Feb 13
17 °FClear.14 mph42%30.36 "Hg10 mi
6:58 PM17 °FClear.16 mph39%30.34 "Hg10 mi
5:58 PM17 °FClear.24 mph42%30.30 "Hg10 mi
4:58 PM19 °FPartly sunny.22 mph41%30.27 "Hg10 mi
3:58 PM20 °FSunny.21 mph43%30.24 "Hg10 mi
2:58 PM21 °FScattered clouds.24 mph37%30.21 "Hg10 mi
1:58 PM22 °FPassing clouds.23 mph35%30.19 "Hg10 mi
12:58 PM23 °FSunny.26 mph34%30.17 "Hg10 mi
11:58 AM23 °FSunny.26 mph37%30.17 "Hg9 mi
10:58 AM24 °FPartly sunny.26 mph38%30.15 "Hg10 mi
9:58 AM23 °FScattered clouds.24 mph37%30.15 "Hg10 mi
8:58 AM23 °FSunny.21 mph40%30.13 "Hg10 mi
7:58 AM23 °FSunny.25 mph49%30.10 "Hg10 mi
6:58 AM22 °FSunny.21 mph57%30.06 "Hg10 mi
5:58 AM23 °FPassing clouds.18 mph57%30.03 "Hg10 mi
4:58 AM24 °FPassing clouds.12 mph74%29.99 "Hg10 mi
3:58 AM23 °FClear.7 mph81%29.97 "Hg10 mi
2:58 AM23 °FClear.6 mph83%29.97 "Hg10 mi
1:58 AM24 °FPassing clouds.6 mph86%29.97 "Hg10 mi
12:58 AM23 °FPassing clouds.8 mph88%29.97 "Hg10 mi
11:58 PM
Fri, Feb 12
23 °FPassing clouds.2 mph92%29.98 "Hg10 mi
10:58 PM24 °FOvercast.3 mph91%29.99 "Hg10 mi
9:58 PM24 °FPassing clouds.2 mph90%30.00 "Hg10 mi
Weather by CustomWeather, © 2016

See weather overviewHow to use our weather pages